Wolf Point, MT

6:31 AM MST on February 11, 2016 (GMT -0700)
Clayton

Weather History for KOLF - September, 2014

Change the Weather History Date:

Wednesday, September 3, 2014

  Actual Average Record
Temperature  
Mean Temperature 66 °F -  
Max Temperature 82 °F 80 °F 100 °F (1998)
Min Temperature 50 °F 46 °F 36 °F (2008)
Degree Days  
Heating Degree Days 0    
Cooling Degree Days 1    
Growing Degree Days 16 (Base 50)    
Moisture  
Dew Point 48 °F    
Average Humidity 60    
Maximum Humidity 86    
Minimum Humidity 29    
Precipitation  
Precipitation T in 0.04 in 0.42 in (1999)
Month to date precipitation 0.06 0.12  
Year to date precipitation 12.49 9.79  
Sea Level Pressure  
Sea Level Pressure 29.66 in    
Wind  
Wind Speed 9 mph (NE)    
Max Wind Speed 28 mph    
Max Gust Speed 38 mph    
Visibility 9 miles    
Events Rain , Thunderstorm    
T = Trace of Precipitation, MM = Missing Value Source: NWS Daily Summary

Daily Weather History Graph

Daily Weather History Graph

Search for Another Location

Airport or City:

Trip Planner

Search our weather history database for the weather conditions in past years. The results will help you decide how hot, cold, wet, or windy it might be!

Date:

Astronomy

Sep. 03, 2014 Rise Set
Actual Time 6:22 AM MDT 7:39 PM MDT
Civil Twilight 5:50 AM MDT 8:11 PM MDT
Nautical Twilight 5:12 AM MDT 8:49 PM MDT
Astronomical Twilight 4:30 AM MDT 9:31 PM MDT
Moon 3:38 PM MDT (9/3) 12:04 AM MDT (9/3)
Length of Visible Light 14h 20m
Length of Day
13h 16m
Waxing Gibbous, 64% of the Moon is Illuminated
Sep 3
Waxing Gibbous
Sep 8
Full
Sep 15
Last Quarter
Sep 24
New
Oct 1
First Quarter

Hourly Weather History & Observations

Time (MDT) Temp. Dew Point Humidity Pressure Visibility Wind Dir Wind Speed Gust Speed Precip Events Conditions
12:53 AM 52.0 °F 45.0 °F 77% 29.69 in 10.0 mi Calm Calm - N/A   Clear
1:53 AM 53.1 °F 45.0 °F 74% 29.68 in 10.0 mi Calm Calm - N/A   Clear
2:53 AM 52.0 °F 45.0 °F 77% 29.67 in 10.0 mi Calm Calm - N/A   Clear
3:53 AM 50.0 °F 44.1 °F 80% 29.66 in 10.0 mi East 3.5 mph - N/A   Partly Cloudy
4:53 AM 52.0 °F 45.0 °F 77% 29.65 in 10.0 mi ENE 5.8 mph - N/A   Partly Cloudy
5:53 AM 52.0 °F 45.0 °F 77% 29.64 in 10.0 mi East 8.1 mph - N/A   Clear
6:53 AM 53.1 °F 46.0 °F 77% 29.64 in 10.0 mi NNE 3.5 mph - N/A   Clear
7:53 AM 57.0 °F 46.9 °F 69% 29.66 in 10.0 mi East 6.9 mph - 0.00 in   Scattered Clouds
8:53 AM 60.1 °F 46.9 °F 62% 29.63 in 5.0 mi East 11.5 mph - 0.00 in   Haze
9:53 AM 64.9 °F 48.9 °F 56% 29.62 in 9.0 mi East 11.5 mph - N/A   Clear
10:13 AM 68.0 °F 48.0 °F 49% 29.62 in 2.5 mi East 12.7 mph - N/A   Haze
10:20 AM 69.1 °F 48.0 °F 47% 29.62 in 4.0 mi East 12.7 mph - N/A   Haze
10:53 AM 73.0 °F 46.9 °F 39% 29.59 in 7.0 mi East 16.1 mph - N/A   Clear
11:53 AM 77.0 °F 45.0 °F 32% 29.57 in 10.0 mi East 18.4 mph 26.5 mph N/A   Clear
12:53 PM 80.1 °F 45.0 °F 29% 29.57 in 10.0 mi East 21.9 mph 26.5 mph N/A   Clear
1:53 PM 81.0 °F 46.0 °F 29% 29.57 in 10.0 mi East 15.0 mph 29.9 mph N/A   Clear
2:53 PM 80.1 °F 48.9 °F 34% 29.57 in 10.0 mi NE 24.2 mph 29.9 mph N/A   Partly Cloudy
3:53 PM 77.0 °F 48.9 °F 37% 29.57 in 10.0 mi NE 24.2 mph 38.0 mph N/A   Clear
4:53 PM 75.0 °F 46.9 °F 37% 29.59 in 10.0 mi NE 24.2 mph 33.4 mph N/A   Clear
5:53 PM 73.0 °F 46.9 °F 39% 29.64 in 10.0 mi NE 10.4 mph - N/A   Scattered Clouds
6:46 PM 66.0 °F 48.9 °F 54% 29.70 in 10.0 mi NW 25.3 mph 35.7 mph 0.00 in Rain , Thunderstorm Light Thunderstorms and Rain
6:53 PM 63.0 °F 52.0 °F 67% 29.68 in 10.0 mi NNW 25.3 mph - 0.00 in Rain , Thunderstorm Light Thunderstorms and Rain
7:07 PM 63.0 °F 52.0 °F 67% 29.72 in 10.0 mi NW 19.6 mph 31.1 mph 0.00 in Thunderstorm Mostly Cloudy
7:21 PM 63.0 °F 53.1 °F 70% 29.75 in 10.0 mi NW 19.6 mph - 0.00 in   Mostly Cloudy
7:53 PM 63.0 °F 50.0 °F 63% 29.78 in 10.0 mi NW 27.6 mph 36.8 mph 0.00 in   Mostly Cloudy
8:53 PM 59.0 °F 51.1 °F 75% 29.80 in 10.0 mi NW 16.1 mph - 0.00 in   Partly Cloudy
9:53 PM 59.0 °F 50.0 °F 72% 29.79 in 10.0 mi NW 9.2 mph - N/A   Scattered Clouds
10:53 PM 55.9 °F 51.1 °F 84% 29.80 in 10.0 mi WSW 5.8 mph - N/A   Clear
11:53 PM 54.0 °F 50.0 °F 86% 29.81 in 10.0 mi West 6.9 mph - N/A   Clear